Location: Nitra
(0.0000°N, 18.0833°E)
Time: 05:38:29
(UTC+01:00)

Cosmos 923 Rocket - Pass Details

Date: 24 January 2021
Orbit: 758 x 785 km, 74.0° (Epoch: 04 March)

Event Time Altitude Azimuth Distance (km) Brightness Sun altitude
Rises 18:41:15 0° 358° (N) 3,240 7.1 -9.8°
Reaches altitude 10° 18:43:42 10° 3° (N) 2,311 6.3 -10.4°
Maximum altitude 18:48:45 49° 78° (ENE) 986 4.2 -11.5°
Drops below altitude 10° 18:53:48 10° 152° (SSE) 2,303 6.4 -12.7°
Sets 18:56:13 0° 157° (SSE) 3,227 7.2 -13.3°
